This is the latest recevied weather packets stored in our database for station/object WA4TPR. If no packets are shown the sender has not sent any weather packets the latest 10 day(s).
| Time | Temp. | Humidity | Pressure | Rain* | Wind** | Luminosity | Snow |
|---|---|---|---|---|---|---|---|
| 1778074906 | 26.67° C | 86% | 1021.3 hPa | 0 mm | - | 369 W/m² | - |
| 1778074603 | 26.11° C | 87% | 1021.3 hPa | 0 mm | - | 342 W/m² | - |
| 1778074300 | 26.11° C | 88% | 1021.3 hPa | 0 mm | - | 133 W/m² | - |
| 1778073998 | 26.11° C | 87% | 1021.3 hPa | 0 mm | - | 308 W/m² | - |
| 1778073694 | 25.56° C | 89% | 1021 hPa | 0 mm | - | 302 W/m² | - |
| 1778073392 | 25.56° C | 89% | 1021 hPa | 0 mm | - | 194 W/m² | - |
| 1778073088 | 25° C | 90% | 1021.2 hPa | 0 mm | - | 182 W/m² | - |
| 1778072785 | 24.44° C | 91% | 1021 hPa | 0 mm | - | 279 W/m² | - |
| 1778072482 | 24.44° C | 92% | 1020.8 hPa | 0 mm | - | 120 W/m² | - |
| 1778072180 | 23.89° C | 93% | 1020.9 hPa | 0 mm | - | 166 W/m² | - |
| 1778071878 | 23.89° C | 94% | 1020.7 hPa | 0 mm | - | 87 W/m² | - |
| 1778071576 | 23.33° C | 95% | 1020.7 hPa | 0 mm | - | 136 W/m² | - |
| 1778071273 | 23.33° C | 96% | 1020.6 hPa | 0 mm | - | 174 W/m² | - |
| 1778070971 | 22.78° C | 97% | 1020.8 hPa | 0 mm | - | 126 W/m² | - |
| 1778070669 | 22.78° C | 98% | 1020.6 hPa | 0 mm | - | 141 W/m² | - |
| 1778070365 | 22.22° C | 99% | 1020.5 hPa | 0 mm | - | 124 W/m² | - |
| 1778070063 | 22.22° C | 99% | 1020.5 hPa | 0 mm | - | 115 W/m² | - |
| 1778069761 | 22.22° C | 99% | 1020.5 hPa | 0 mm | - | 99 W/m² | - |
| 1778069457 | 21.67° C | 99% | 1020.5 hPa | 0 mm | - | 94 W/m² | - |
| 1778069155 | 21.67° C | 99% | 1020.3 hPa | 0 mm | - | 86 W/m² | - |
| 1778068852 | 21.67° C | 99% | 1020.7 hPa | 0 mm | - | 78 W/m² | - |
| 1778068550 | 21.11° C | 99% | 1020.6 hPa | 0 mm | - | 70 W/m² | - |
| 1778068248 | 21.11° C | 99% | 1020.6 hPa | 0 mm | - | 65 W/m² | - |
| 1778067945 | 21.11° C | 99% | 1020.5 hPa | 0 mm | - | 53 W/m² | - |
| 1778067643 | 20.56° C | 99% | 1020.3 hPa | 0 mm | - | 49 W/m² | - |
* Rain latest hour (hover to see other rain measurements)
** Current wind speed in m/s (hover to see current wind gust speed)